Regional Weather Roundup
Issued by NWS Sioux Falls, SD

Home | Current Version | Previous Version | Graphics & Text | Print | Product List | Glossary Off
Versions: 1 2 3 4 5 6 7 8 9 10 11 12 13 14 15 16 17 18 19 20 21 22 23 24 25 26 27 28 29 30 31 32 33 34 35 36 37 38 39 40 41 42 43 44 45 46 47 48 49 50

000
ASUS43 KFSD 140710
RWRFSD

WEATHER ROUNDUP FOR SE SOUTH DAKOTA/SW MINNESOTA/NW IOWA
NATIONAL WEATHER SERVICE SIOUX FALLS SD
100 AM CST SUN FEB 14 2016

NOTE: "FAIR" INDICATES FEW OR NO CLOUDS BELOW 12,000 FEET WITH NO
SIGNIFICANT WEATHER AND OR OBSTRUCTIONS TO VISIBILITY.


SDZ038>040-050-052>070-140800-
SOUTHEAST SOUTH DAKOTA

CITY           SKY/WX    TMP DP  RH WIND       PRES   REMARKS
BROOKINGS      LGT SNOW  11   7  84 SE22      29.98F FOG     WCI  -8
CHAMBERLAIN    LGT SNOW  21  18  88 SE10      29.84F WCI   9
HURON          LGT SNOW  14   9  80 SE20G28   29.93F VSB 3/4 WCI  -3
MADISON        CLOUDY    10  10 100 SE21G28   29.96F FOG     WCI  -9
MITCHELL       CLOUDY    17   9  70 SE20      29.96F WCI   1
SIOUX FALLS    CLOUDY    13   7  77 SE17G28   30.00F WCI  -4
WINNER         LGT SNOW  32  28  85 NW12      29.81S FOG     WCI  23
YANKTON        CLOUDY    16   7  67 SE21      29.99F WCI  -2
$$

MNZ071-072-080-081-089-090-097-098-140800-
SOUTHWEST MINNESOTA

CITY           SKY/WX    TMP DP  RH WIND       PRES   REMARKS
FAIRMONT       CLOUDY    10   5  79 SE17      30.17S WCI  -7
JACKSON        LGT SNOW  12   9  85 SE18      30.14F WCI  -5
LUVERNE        CLOUDY    14  10  85 SE17G23   30.06F WCI  -3
MARSHALL       FLURRIES  12   7  80 SE20      30.10F WCI  -6
MONTEVIDEO     LGT SNOW  10   7  85 S16       30.13F WCI  -7
PIPESTONE      LGT SNOW  12   3  67 S15G24    30.02F VSB 1   WCI  -4
REDWOOD FALLS  LGT SNOW  11   5  77 SE17      30.17F WCI  -6
TRACY          CLOUDY    13   9  83 S13       30.11F WCI  -2
WINDOM         FLURRIES  10   9  92 SE18G24   30.12F WCI  -8
WORTHINGTON    CLOUDY    10   5  79 SE18G26   30.08F WCI  -8
$$

IAZ001>003-012>014-020>022-031-032-NEZ013-014-SDZ071-140800-
NORTHWEST IOWA

CITY           SKY/WX    TMP DP  RH WIND       PRES   REMARKS
CHEROKEE       CLOUDY    13  10  88 SE12      30.12F WCI  -1
DENISON        CLOUDY    16   9  73 SE13      30.11F WCI   2
ESTHERVILLE    LGT SNOW  11   8  88 SE23      30.15F FOG     WCI  -9
LE MARS        CLOUDY    16  12  86 SE15G23   30.07F WCI   1
ORANGE CITY    CLOUDY    12  10  92 SE13G21   30.04F FOG     WCI  -3
SHELDON        CLOUDY    12   9  85 SE21G26   30.07F FOG     WCI  -6
SIOUX CITY     CLOUDY    19   6  57 SE15      30.07F WCI   5
SPENCER        CLOUDY    12   7  80 SE22      30.13F HAZE    WCI  -7
STORM LAKE     CLOUDY    12  10  92 SE16G23   30.12F WCI  -4
$$

ABBREVIATIONS USED IN REMARKS
   TC - TEMPERATURE IN CELSIUS
  WCI - WIND CHILL INDEX
   HX - HEAT INDEX
  VSB - VISIBILITY




USA.gov is the U.S. government's official web portal to all federal, state and local government web resources and services.